COSMOS 1275 DEB, 12720

Orbit data source: Space-Track

COSMOS 1275 DEB, 12720 is space debris in LEO originally from a launch on Thu, 04 Jun 1981 UTC launched from the Plesetsk Missile And Space Complex (PKMTR). Debris objects in space refer to the collection of defunct objects orbiting the Earth. Examples of debris include non-operational satellites, rocket bodies, and fragments generated from explosions, collisions, or faulty payload assembly.

Loading next visibility...
Identifier
12720, 1981-053BM
Orbit
LEO
Country
Flag of CISCIS
Related business
Manufacturer
Unknown
Mission
Spacecraft
Bus & Motor
Unknown
Mass
Unknown
Launch date (UTC)
1981-06-04 (45 years ago)
Launch vehicle
Unknown
Launch site
Plesetsk Missile And Space Complex (PKMTR)
Object type
Payload
Rocket body
Debris
Shape & HBR
Unknown shape, 0.1 m
Radar Cross Section
Small (<0.1 m²)

Expand to show TLE details & history
Last TLE update: 18 hours ago

TLE from 18 hours ago
0 COSMOS 1275 DEB
1 12720U 81053BM  26145.29537876  .00000880  00000-0  69774-3 0  9996
2 12720  83.2503  84.7919 0109076 240.7884 272.9172 13.87643254106469
Epoch: 2026-05-25T07:05Z
TLE epoch observation values (Epoch: 2026-05-25T07:05:20.724Z)
Latitude
27.37545°
Longitude
-87.9248°
Altitude
937.075 km
Speed
7.387 km/s
True Right ascension
17h 25m 11s
True Declination
27° 14' 19"
Sunlit
Object was in full shadow at epoch
Visualization orbit readout
Latitude
Unknown
Longitude
Unknown
Altitude
Unknown
Speed
Unknown
Apparent Right ascension
Unknown
Apparent Declination
Unknown
Sunlit
N/A
Visualization observer readout
Local Sidereal Time
10:19:08
Azimuth
Unknown
Elevation
Unknown
Doppler factor
Unknown
Orbital elements
Apogee altitude
1,013.779 km
Perigee altitude
854.263 km
Semi-major axis
7,312.158 km
Eccentricity
0.01091
Inclination
83.2503°
RAAN
84.7919°
Arg. of periapsis
240.7884°
True anomaly
271.66813°
Mean anomaly
272.9172°
Eccentric anomaly
272.29274°
Mean motion
3.47116 °/min
Orbital period
103.71 mins
BSTAR
0.00069774
Loading maneuver chart data...
Computing Atmospheric mass density...

Documentation

Showing up to 5 results
|